Weather History for Adrian, MI

Change the Weather History Date:

Tuesday, February 5, 2013

  Actual Average Record
Temperature  
Mean Temperature 16 °F -  
Max Temperature 28 °F 30 °F 51 °F (1964)
Min Temperature 5 °F 13 °F -11 °F (2009)
Degree Days  
Heating Degree Days 48    
Moisture  
Dew Point 16 °F    
Average Humidity 87    
Maximum Humidity 100    
Minimum Humidity 71    
Precipitation  
Precipitation 0.04 in - - ()
Sea Level Pressure  
Sea Level Pressure 29.91 in    
Wind  
Wind Speed 4 mph (West)    
Max Wind Speed 16 mph    
Max Gust Speed 24 mph    
Visibility 4 miles    
Events Fog , Snow    
Averages and records for this station are not official NWS values.
T = Trace of Precipitation, MM = Missing Value Source: NWS Daily Summary

Daily Weather History Graph

Daily Weather History Graph

Search for Another Location

Airport:

Trip Planner

Search our weather history database for the weather conditions in past years. The results will help you decide how hot, cold, wet, or windy it might be!

Date:

Astronomy

Feb. 05, 2013 Rise Set
Actual Time 7:44 AM EST 5:57 PM EST
Civil Twilight 7:15 AM EST 6:26 PM EST
Nautical Twilight 6:41 AM EST 6:59 PM EST
Astronomical Twilight 6:09 AM EST 7:31 PM EST
Moon 3:26 AM EST (2/5) 1:11 PM EST (2/5)
Length of Visible Light 11h 11m
Length of Day
10h 12m
Waning Crescent, 27% of the Moon is Illuminated
Feb 5
Waning Crescent
Feb 10
New
Feb 17
First Quarter
Feb 25
Full
Mar 4
Last Quarter

Hourly Weather History & Observations

Time (EST) Temp. Windchill Dew Point Humidity Pressure Visibility Wind Dir Wind Speed Gust Speed Precip Events Conditions
12:53 AM 19.9 °F - 17.1 °F 89% 29.96 in 7.0 mi Calm Calm - N/A   Overcast
1:53 AM 18.0 °F 12.7 °F 15.1 °F 88% 29.94 in 6.0 mi North 3.5 mph - N/A   Overcast
2:53 AM 19.0 °F 12.3 °F 16.0 °F 88% 29.97 in 7.0 mi NNW 4.6 mph - N/A   Overcast
3:01 AM 19.4 °F 11.5 °F 15.8 °F 86% 29.93 in 8.0 mi North 5.8 mph - N/A   Overcast
3:45 AM 17.6 °F 9.3 °F 14.0 °F 86% 29.92 in 9.0 mi North 5.8 mph - N/A   Scattered Clouds
3:53 AM 18.0 °F 11.1 °F 14.0 °F 84% 29.96 in 9.0 mi North 4.6 mph - N/A   Partly Cloudy
4:53 AM 16.0 °F - 12.0 °F 84% 29.94 in 10.0 mi Calm Calm - N/A   Scattered Clouds
5:53 AM 12.0 °F - 10.9 °F 95% 29.96 in 7.0 mi Calm Calm - N/A   Partly Cloudy
6:07 AM 12.2 °F 6.1 °F 10.4 °F 92% 29.91 in 6.0 mi NW 3.5 mph - N/A   Mostly Cloudy
6:53 AM 10.9 °F 4.7 °F 9.0 °F 92% 29.96 in 5.0 mi NW 3.5 mph - N/A   Mostly Cloudy
7:24 AM 10.4 °F 2.2 °F 6.8 °F 85% 29.93 in 4.0 mi WNW 4.6 mph - N/A   Scattered Clouds
7:53 AM 6.1 °F - 3.9 °F 91% 29.97 in 2.5 mi Calm Calm - N/A   Clear
7:56 AM 5.0 °F - 3.2 °F 92% 29.92 in 1.5 mi Calm Calm - N/A   Clear
8:06 AM 6.8 °F - 5.0 °F 92% 29.91 in 2.0 mi Calm Calm - N/A   Clear
8:17 AM 8.6 °F - 5.0 °F 85% 29.92 in 0.8 mi Calm Calm - N/A   Clear
8:28 AM 6.8 °F - 6.8 °F 100% 29.92 in 0.2 mi Calm Calm - N/A Fog Light Freezing Fog
8:34 AM 8.6 °F - 6.8 °F 92% 29.93 in 1.0 mi Calm Calm - N/A   Clear
8:42 AM 6.8 °F - 5.0 °F 92% 29.93 in 2.0 mi Calm Calm - N/A   Clear
8:53 AM 7.0 °F - 6.1 °F 96% 29.98 in 2.5 mi Calm Calm - N/A   Clear
9:00 AM 6.8 °F - 3.2 °F 85% 29.93 in 4.0 mi Calm Calm - N/A   Clear
9:53 AM 12.0 °F - 10.9 °F 95% 29.97 in 5.0 mi Calm Calm - N/A   Scattered Clouds
10:53 AM 19.0 °F 10.0 °F 16.0 °F 88% 29.95 in 6.0 mi SSW 6.9 mph - N/A   Mostly Cloudy
11:53 AM 21.0 °F 12.4 °F 17.1 °F 85% 29.94 in 7.0 mi SW 6.9 mph - N/A   Scattered Clouds
12:53 PM 23.0 °F 13.9 °F 18.0 °F 81% 29.90 in 5.0 mi WSW 8.1 mph - 0.03 in   Haze
1:53 PM 24.1 °F 13.7 °F 18.0 °F 77% 29.88 in 8.0 mi WSW 10.4 mph - N/A   Overcast
2:53 PM 25.0 °F 14.2 °F 18.0 °F 75% 29.86 in 10.0 mi SW 11.5 mph - 0.01 in   Overcast
3:53 PM 26.1 °F 16.2 °F 18.0 °F 71% 29.86 in 10.0 mi SW 10.4 mph - N/A   Overcast
4:53 PM 26.1 °F 16.8 °F 19.0 °F 75% 29.87 in 8.0 mi WSW 9.2 mph - N/A   Overcast
5:10 PM 24.8 °F 17.9 °F 19.4 °F 80% 29.83 in 2.0 mi WSW 5.8 mph - 0.00 in Snow Light Snow
5:18 PM 24.8 °F 16.9 °F 19.4 °F 80% 29.83 in 1.8 mi WSW 6.9 mph - 0.00 in Snow Light Snow
5:22 PM 24.8 °F 16.9 °F 21.2 °F 86% 29.83 in 0.8 mi WSW 6.9 mph - 0.00 in Snow Light Snow
5:37 PM 24.8 °F 16.1 °F 21.2 °F 86% 29.83 in 0.2 mi WSW 8.1 mph - 0.00 in Fog , Snow Heavy Snow
5:51 PM 24.8 °F 16.9 °F 21.2 °F 86% 29.83 in 0.5 mi WSW 6.9 mph - 0.00 in Fog , Snow Snow
5:53 PM 25.0 °F 16.3 °F 21.9 °F 88% 29.88 in 0.5 mi SW 8.1 mph - 0.00 in Fog , Snow Snow
6:00 PM 24.8 °F 17.9 °F 23.0 °F 93% 29.84 in 0.5 mi WSW 5.8 mph - 0.00 in Fog , Snow Light Snow
6:08 PM 24.8 °F 16.9 °F 23.0 °F 93% 29.84 in 0.8 mi WSW 6.9 mph - 0.00 in Snow Light Snow
6:17 PM 24.8 °F 16.9 °F 21.2 °F 86% 29.84 in 2.0 mi WSW 6.9 mph - 0.00 in Snow Light Snow
6:32 PM 24.8 °F 16.9 °F 21.2 °F 86% 29.85 in 3.0 mi WSW 6.9 mph - 0.00 in   Mostly Cloudy
6:48 PM 23.0 °F 14.7 °F 21.2 °F 93% 29.86 in 4.0 mi WSW 6.9 mph - 0.00 in   Mostly Cloudy
6:53 PM 24.1 °F 17.0 °F 21.9 °F 91% 29.91 in 4.0 mi WSW 5.8 mph - 0.00 in   Mostly Cloudy
7:16 PM 24.8 °F 16.9 °F 21.2 °F 86% 29.85 in 5.0 mi WSW 6.9 mph - N/A   Overcast
7:53 PM 25.0 °F 19.3 °F 21.9 °F 88% 29.92 in 5.0 mi WSW 4.6 mph - N/A   Overcast
8:29 PM 24.8 °F 19.1 °F 23.0 °F 93% 29.88 in 4.0 mi West 4.6 mph - N/A   Overcast
8:44 PM 24.8 °F 19.1 °F 23.0 °F 93% 29.88 in 4.0 mi West 4.6 mph - N/A   Overcast
8:53 PM 25.0 °F 19.3 °F 23.0 °F 92% 29.94 in 4.0 mi WSW 4.6 mph - N/A   Overcast
9:09 PM 26.6 °F 21.2 °F 23.0 °F 86% 29.89 in 4.0 mi WSW 4.6 mph - N/A   Overcast
9:53 PM 26.1 °F 18.4 °F 24.1 °F 92% 29.96 in 5.0 mi WSW 6.9 mph - N/A   Overcast
11:32 PM 28.4 °F 18.5 °F 24.8 °F 86% 29.94 in 7.0 mi NW 11.5 mph 17.3 mph N/A   Overcast
11:53 PM 28.9 °F 17.3 °F 23.0 °F 78% 29.99 in 10.0 mi NW 16.1 mph 24.2 mph N/A   Overcast